{"data":{"norad_id":54796,"intl_designator":"2022-175AQ","name":"STARLINK-5415","alt_names":[],"object_type":"PAYLOAD","status":"ACTIVE","operator":null,"country":"US","launch_date":"2022-12-17","launch_site_code":"AFETR","launch_vehicle":null,"mission":null,"orbit_class":"UNKNOWN","rcs_meters":null,"size_class":null,"mass_kg":null,"dimensions":null,"purposes":["comms"],"wikipedia_slug":null,"has_3d_model":false,"image_url":null,"decayed_at":null,"tle_current":{"epoch":"2026-09-20T11:57:31.839552Z","epoch_age_seconds":93588,"freshness":"FRESH","line1":"1 54796U 22175AQ  26263.49828518  .00000694  00000+0  31689-4 0  9991","line2":"2 54796  53.1586 219.5740 0001088  79.7788 280.3337 15.34391066209748","mean_motion":15.34391066,"eccentricity":0.0001088,"inclination_deg":53.1586,"raan_deg":219.574,"arg_perigee_deg":79.7788,"mean_anomaly_deg":280.3337,"bstar":3.1689e-5,"rev_number":20974,"period_min":93.848304510397,"perigee_km":461.98550775951,"apogee_km":463.4740803739,"semimajor_km":6840.8667940667,"source":"CELESTRAK","updated_at":"2026-09-21T09:00:33.127913Z"}}}